TimeMDT,TemperatureF,Dew PointF,Humidity,Sea Level PressureIn,VisibilityMPH,Wind Direction,Wind SpeedMPH,Gust SpeedMPH,PrecipitationIn,Events,Conditions,WindDirDegrees,DateUTC
12:53 AM,35.1,3.0,26,29.86,10.0,NE,10.4,-,N/A,,Clear,40,2013-03-19 06:53:00
1:53 AM,28.0,3.9,36,29.88,10.0,East,5.8,-,N/A,,Clear,80,2013-03-19 07:53:00
2:53 AM,33.1,5.0,31,29.85,10.0,North,6.9,-,N/A,,Clear,350,2013-03-19 08:53:00
3:53 AM,24.1,6.1,46,29.87,10.0,ENE,9.2,-,N/A,,Clear,70,2013-03-19 09:53:00
4:53 AM,28.0,7.0,41,29.86,10.0,NE,10.4,-,N/A,,Clear,50,2013-03-19 10:53:00
5:53 AM,28.9,6.1,38,29.88,10.0,North,11.5,-,N/A,,Clear,360,2013-03-19 11:53:00
6:53 AM,26.1,6.1,43,29.93,10.0,East,4.6,-,N/A,,Clear,80,2013-03-19 12:53:00
7:53 AM,32.0,8.1,37,29.94,10.0,NNW,9.2,-,N/A,,Clear,340,2013-03-19 13:53:00
8:53 AM,42.1,8.1,25,29.93,7.0,ENE,8.1,-,N/A,,Clear,70,2013-03-19 14:53:00
9:53 AM,45.0,7.0,21,29.96,10.0,ENE,9.2,-,N/A,,Clear,60,2013-03-19 15:53:00
10:53 AM,50.0,6.1,17,29.97,10.0,ENE,12.7,-,N/A,,Clear,70,2013-03-19 16:53:00
11:53 AM,50.0,7.0,18,30.00,10.0,NE,18.4,26.5,N/A,,Mostly Cloudy,40,2013-03-19 17:53:00
12:53 PM,53.1,8.1,16,29.99,10.0,ENE,11.5,18.4,N/A,,Clear,60,2013-03-19 18:53:00
1:53 PM,52.0,10.0,19,30.02,10.0,SE,11.5,17.3,N/A,,Clear,130,2013-03-19 19:53:00
2:53 PM,53.1,7.0,16,29.99,10.0,SW,8.1,-,N/A,,Mostly Cloudy,220,2013-03-19 20:53:00
3:53 PM,52.0,7.0,16,30.03,10.0,Variable,4.6,-,N/A,,Overcast,0,2013-03-19 21:53:00
4:53 PM,52.0,8.1,17,30.02,10.0,SSW,12.7,21.9,N/A,,Overcast,200,2013-03-19 22:53:00
5:53 PM,50.0,8.1,18,30.04,10.0,South,17.3,-,N/A,,Scattered Clouds,190,2013-03-19 23:53:00
6:53 PM,46.9,8.1,21,30.09,10.0,South,12.7,-,N/A,,Overcast,190,2013-03-20 00:53:00
7:53 PM,39.0,6.1,26,30.15,10.0,East,3.5,-,N/A,,Mostly Cloudy,100,2013-03-20 01:53:00
9:53 PM,32.0,7.0,35,30.20,10.0,North,8.1,-,N/A,,Clear,360,2013-03-20 03:53:00
10:53 PM,30.0,8.1,40,30.21,10.0,NNE,3.5,-,N/A,,Clear,20,2013-03-20 04:53:00
11:53 PM,28.9,8.1,41,30.22,10.0,WSW,6.9,-,N/A,,Clear,240,2013-03-20 05:53:00